Flag for United Kingdom Weather past 2 weeks in Exeter, England, United Kingdom

Now
64 °F

Passing clouds.


Feels Like: 64 °F
Forecast: 47 / 64 °F
Wind: 16 mph from Northwest

Location: Exeter Airport

Current Time: Jul 29, 2015 at 5:21:21 PM

Latest Report: Jul 29, 2015 at 4:50 PM


Visibility: N/A

Pressure: 29.98 "Hg

Humidity: 56%

Dew point: 48 °F

Location of ExeterLocation

Historic Weather in Exeter — Graph

°F

Exeter temperature yesterday

Maximum temperature yesterday: 64 °F (at 1:20 PM)
Minimum temperature yesterday: 52 °F (at 11:50 PM)
Average temperature yesterday: 59 °F

Past Weeks' High & Low Weather Summary

 TemperatureHumidityPressure
High73 °F (Jul 19, 3:50 PM)100% (Jul 15, 5:50 AM)30.09 "Hg (Jul 15, 5:50 AM)
Low45 °F (Jul 18, 5:50 AM)46% (Jul 25, 2:50 PM)29.47 "Hg (Jul 26, 1:20 PM)
Average62 °F79%29.89 "Hg
* Reported Jul 14 4:20 PM — Jul 29 4:20 PM, Exeter, Weather by CustomWeather, © 2015

Note: Actual official high and low records may vary slightly from our data, if they occured in-between our weather recording intervals... More about our weather records

Advertising

Exeter weather history for previous 24 hours

 ConditionsComfort  
Time TempWeatherWind HumidityBarometerVisibility
4:20 PM
Wed, Jul 29
63 °FPassing clouds.15 mph59%29.98 "HgN/A
3:50 PM63 °FPassing clouds.15 mph59%29.98 "HgN/A
3:20 PM63 °FPassing clouds.15 mph64%29.98 "HgN/A
2:50 PM63 °FPassing clouds.15 mph64%29.95 "HgN/A
2:20 PM63 °FPassing clouds.13 mph64%29.95 "HgN/A
1:50 PM63 °FPassing clouds.14 mph64%29.95 "HgN/A
1:20 PM63 °FPassing clouds.15 mph64%29.95 "HgN/A
12:50 PM61 °FPassing clouds.13 mph68%29.95 "HgN/A
12:20 PM61 °FPassing clouds.13 mph68%29.92 "HgN/A
11:50 AM59 °FScattered clouds.15 mph68%29.92 "HgN/A
11:20 AM59 °FScattered clouds.15 mph68%29.92 "HgN/A
10:20 AM57 °FScattered clouds.15 mph72%29.92 "HgN/A
9:50 AM55 °FScattered clouds.12 mph82%29.92 "HgN/A
9:20 AM57 °FScattered clouds.12 mph77%29.89 "HgN/A
8:20 AM55 °FPassing clouds.9 mph88%29.89 "HgN/A
7:50 AM55 °FPassing clouds.7 mph82%29.86 "HgN/A
7:20 AM52 °FPassing clouds.5 mph94%29.86 "HgN/A
6:50 AM52 °FPassing clouds.5 mph94%29.86 "HgN/A
6:20 AM50 °FPassing clouds.3 mph94%29.86 "HgN/A
5:50 AM50 °FPassing clouds.3 mph94%29.86 "HgN/A
1:50 AM52 °FLight rain. Passing clouds.6 mph88%29.86 "HgN/A
1:20 AM52 °FClear.6 mph88%29.86 "Hg10 mi
12:50 AM52 °FClear.6 mph88%29.86 "Hg10 mi
12:20 AM52 °FClear.7 mph88%29.86 "Hg10 mi
11:50 PM
Tue, Jul 28
52 °FClear.8 mph88%29.86 "Hg10 mi
10:20 PM55 °FPassing clouds.8 mph77%29.83 "HgN/A
9:50 PM55 °FPassing clouds.9 mph77%29.83 "HgN/A
9:20 PM55 °FPassing clouds.7 mph72%29.83 "HgN/A
8:50 PM57 °FPassing clouds.7 mph72%29.83 "HgN/A
8:20 PM59 °FPassing clouds.12 mph63%29.83 "HgN/A
7:20 PM63 °FPassing clouds.12 mph56%29.80 "HgN/A
6:50 PM63 °FPassing clouds.14 mph56%29.80 "HgN/A
6:20 PM63 °FPassing clouds.13 mph52%29.80 "HgN/A
5:20 PM64 °FPassing clouds.15 mph52%29.80 "HgN/A
Weather by CustomWeather, © 2015

See weather overviewHow to use our weather pages